• în Republica Moldova
  • Lista ţărilor
  • Pe 7 zile
  • Temperatura apei
  • Hartă satelitară
  • Meteo pe hartă
  • Widget-uri
  • user-avatar
    Intrare

    Meteo pe oră la Wiktoria

    Astăzi, 31 Martie, Vineri

    Timp Temperatura Precipitaţii Vânt Presiune Umiditate
    00:00 +10°C° 0 mm 2 m/s 753 mmHg 72%
    01:00 +11°C° 0 mm 1 m/s 753 mmHg 75%
    02:00 +10°C° 0 mm 1 m/s 753 mmHg 78%
    03:00 +10°C° 0 mm 1 m/s 753 mmHg 81%
    04:00 +9°C° 0 mm 1 m/s 753 mmHg 84%
    05:00 +9°C° 0 mm 1 m/s 753 mmHg 86%
    06:00 +9°C° 0 mm 1 m/s 753 mmHg 87%
    07:00 +9°C° 0 mm 1 m/s 754 mmHg 89%
    08:00 +11°C° 0 mm 1 m/s 754 mmHg 77%
    09:00 +14°C° 0 mm 1 m/s 754 mmHg 64%
    10:00 +16°C° 0 mm 2 m/s 754 mmHg 52%
    11:00 +17°C° 0 mm 2 m/s 753 mmHg 47%
    12:00 +19°C° 0 mm 2 m/s 753 mmHg 42%
    13:00 +20°C° 0 mm 2 m/s 752 mmHg 36%
    14:00 +20°C° 0 mm 2 m/s 752 mmHg 36%
    15:00 +21°C° 0 mm 2 m/s 751 mmHg 37%
    16:00 +21°C° 0 mm 2 m/s 751 mmHg 37%
    17:00 +19°C° 0 mm 2 m/s 751 mmHg 44%
    18:00 +18°C° 0 mm 1 m/s 751 mmHg 52%
    19:00 +15°C° 0 mm 1 m/s 751 mmHg 60%
    20:00 +14°C° 0 mm 1 m/s 751 mmHg 65%
    21:00 +13°C° 0 mm 1 m/s 752 mmHg 69%
    22:00 +12°C° 0 mm 1 m/s 752 mmHg 74%
    23:00 +11°C° 0 mm 1 m/s 752 mmHg 76%

    Mâine, 1 Aprilie, Sâmbătă

    Timp Temperatura Precipitaţii Vânt Presiune Umiditate
    00:00 +11°C° 0 mm 1 m/s 752 mmHg 78%
    01:00 +10°C° 0 mm 1 m/s 752 mmHg 80%
    02:00 +10°C° 0 mm 1 m/s 752 mmHg 82%
    03:00 +9°C° 0 mm 1 m/s 751 mmHg 84%
    04:00 +9°C° 0 mm 1 m/s 751 mmHg 86%
    05:00 +9°C° 0 mm 1 m/s 752 mmHg 86%
    06:00 +9°C° 0 mm 1 m/s 752 mmHg 86%
    07:00 +9°C° 0 mm 1 m/s 753 mmHg 87%
    08:00 +12°C° 0 mm 1 m/s 753 mmHg 78%
    09:00 +14°C° 0 mm 2 m/s 753 mmHg 69%
    10:00 +17°C° 0 mm 2 m/s 754 mmHg 60%
    11:00 +17°C° 0 mm 2 m/s 754 mmHg 56%
    12:00 +18°C° 0 mm 2 m/s 753 mmHg 51%
    13:00 +19°C° 0 mm 2 m/s 753 mmHg 47%
    14:00 +19°C° 0 mm 3 m/s 753 mmHg 45%
    15:00 +19°C° 0 mm 3 m/s 753 mmHg 43%
    16:00 +19°C° 0 mm 3 m/s 753 mmHg 40%
    17:00 +17°C° 0 mm 3 m/s 754 mmHg 46%
    18:00 +16°C° 0 mm 2 m/s 754 mmHg 52%
    19:00 +14°C° 0 mm 2 m/s 755 mmHg 57%
    20:00 +13°C° 0 mm 2 m/s 756 mmHg 62%
    21:00 +12°C° 0 mm 2 m/s 756 mmHg 67%
    22:00 +11°C° 0 mm 1 m/s 757 mmHg 71%
    23:00 +11°C° 0 mm 1 m/s 757 mmHg 74%

    Poimâine, 2 Aprilie, Duminică

    Timp Temperatura Precipitaţii Vânt Presiune Umiditate
    00:00 +10°C° 0 mm 1 m/s 757 mmHg 76%
    01:00 +10°C° 0 mm 1 m/s 757 mmHg 78%
    02:00 +10°C° 0 mm 1 m/s 757 mmHg 80%
    03:00 +10°C° 0 mm 1 m/s 757 mmHg 83%
    04:00 +9°C° 0 mm 1 m/s 757 mmHg 85%
    05:00 +9°C° 0 mm 1 m/s 758 mmHg 86%
    06:00 +9°C° 0 mm 1 m/s 758 mmHg 87%
    07:00 +9°C° 0 mm 1 m/s 759 mmHg 88%
    08:00 +10°C° 0 mm 2 m/s 759 mmHg 75%
    09:00 +14°C° 0 mm 2 m/s 759 mmHg 61%
    10:00 +16°C° 0 mm 2 m/s 760 mmHg 48%
    11:00 +18°C° 0 mm 2 m/s 759 mmHg 44%
    12:00 +19°C° 0 mm 2 m/s 759 mmHg 40%
    13:00 +20°C° 0 mm 2 m/s 759 mmHg 36%
    14:00 +20°C° 0 mm 2 m/s 759 mmHg 36%
    15:00 +20°C° 0 mm 2 m/s 758 mmHg 36%
    16:00 +20°C° 0 mm 3 m/s 758 mmHg 37%
    17:00 +18°C° 0 mm 2 m/s 759 mmHg 42%
    18:00 +17°C° 0 mm 2 m/s 759 mmHg 47%
    19:00 +15°C° 0 mm 2 m/s 760 mmHg 53%
    20:00 +14°C° 0 mm 2 m/s 760 mmHg 56%
    21:00 +14°C° 0 mm 2 m/s 761 mmHg 60%
    22:00 +13°C° 0 mm 2 m/s 761 mmHg 63%
    23:00 +12°C° 0 mm 2 m/s 761 mmHg 66%

    3 Aprilie, Luni

    Timp Temperatura Precipitaţii Vânt Presiune Umiditate
    00:00 +10°C° 0 mm 2 m/s 761 mmHg 69%
    01:00 +11°C° 0 mm 1 m/s 761 mmHg 72%
    02:00 +10°C° 0 mm 1 m/s 761 mmHg 75%
    03:00 +9°C° 0 mm 1 m/s 761 mmHg 78%
    04:00 +9°C° 0 mm 1 m/s 761 mmHg 81%
    05:00 +9°C° 0 mm 1 m/s 761 mmHg 81%
    06:00 +8°C° 0 mm 1 m/s 761 mmHg 82%
    07:00 +8°C° 0 mm 1 m/s 762 mmHg 82%
    08:00 +11°C° 0 mm 1 m/s 762 mmHg 69%
    09:00 +14°C° 0 mm 1 m/s 762 mmHg 55%
    10:00 +18°C° 0 mm 1 m/s 762 mmHg 42%
    11:00 +20°C° 0 mm 1 m/s 761 mmHg 38%
    12:00 +22°C° 0 mm 1 m/s 761 mmHg 34%
    13:00 +24°C° 0 mm 1 m/s 760 mmHg 30%
    14:00 +24°C° 0 mm 1 m/s 760 mmHg 29%
    15:00 +24°C° 0 mm 1 m/s 759 mmHg 28%
    16:00 +24°C° 0 mm 1 m/s 759 mmHg 27%
    17:00 +21°C° 0 mm 1 m/s 759 mmHg 33%
    18:00 +19°C° 0 mm 1 m/s 759 mmHg 39%
    19:00 +16°C° 0 mm 1 m/s 760 mmHg 45%
    20:00 +15°C° 0 mm 1 m/s 760 mmHg 51%
    21:00 +14°C° 0 mm 1 m/s 760 mmHg 56%
    22:00 +13°C° 0 mm 1 m/s 761 mmHg 62%
    23:00 +12°C° 0 mm 1 m/s 761 mmHg 66%

    4 Aprilie, Marţi

    Timp Temperatura Precipitaţii Vânt Presiune Umiditate
    00:00 +12°C° 0 mm 1 m/s 760 mmHg 71%
    01:00 +11°C° 0 mm 1 m/s 760 mmHg 75%
    02:00 +11°C° 0 mm 1 m/s 760 mmHg 77%
    03:00 +10°C° 0 mm 1 m/s 760 mmHg 79%
    04:00 +10°C° 0 mm 1 m/s 760 mmHg 81%
    05:00 +10°C° 0 mm 1 m/s 760 mmHg 82%
    06:00 +10°C° 0 mm 1 m/s 761 mmHg 83%
    07:00 +10°C° 0 mm 1 m/s 761 mmHg 84%
    08:00 +13°C° 0 mm 1 m/s 761 mmHg 70%
    09:00 +16°C° 0 mm 1 m/s 761 mmHg 57%
    10:00 +19°C° 0 mm 0 m/s 761 mmHg 44%
    11:00 +21°C° 0 mm 0 m/s 760 mmHg 38%
    12:00 +22°C° 0 mm 0 m/s 760 mmHg 33%
    13:00 +24°C° 0 mm 0 m/s 759 mmHg 27%
    14:00 +24°C° 0 mm 0 m/s 759 mmHg 27%
    15:00 +25°C° 0 mm 1 m/s 758 mmHg 26%
    16:00 +25°C° 0 mm 1 m/s 758 mmHg 25%
    17:00 +22°C° 0 mm 1 m/s 758 mmHg 32%
    18:00 +19°C° 0 mm 1 m/s 758 mmHg 39%
    19:00 +15°C° 0 mm 1 m/s 758 mmHg 46%
    20:00 +15°C° 0 mm 1 m/s 758 mmHg 48%
    21:00 +15°C° 0 mm 1 m/s 758 mmHg 49%
    22:00 +15°C° 0 mm 1 m/s 758 mmHg 51%
    23:00 +14°C° 0 mm 1 m/s 758 mmHg 56%

    5 Aprilie, Miercuri

    Timp Temperatura Precipitaţii Vânt Presiune Umiditate
    00:00 +13°C° 0 mm 1 m/s 758 mmHg 61%
    01:00 +13°C° 0 mm 1 m/s 758 mmHg 66%
    02:00 +12°C° 0 mm 1 m/s 758 mmHg 70%
    03:00 +12°C° 0 mm 1 m/s 758 mmHg 74%
    04:00 +11°C° 0 mm 1 m/s 757 mmHg 78%
    05:00 +11°C° 0 mm 1 m/s 758 mmHg 80%
    06:00 +11°C° 0 mm 1 m/s 758 mmHg 82%
    07:00 +11°C° 0 mm 1 m/s 758 mmHg 83%
    08:00 +14°C° 0 mm 1 m/s 758 mmHg 72%
    09:00 +16°C° 0 mm 1 m/s 758 mmHg 62%
    10:00 +20°C° 0 mm 1 m/s 758 mmHg 51%
    11:00 +22°C° 0 mm 1 m/s 758 mmHg 44%
    12:00 +24°C° 0 mm 1 m/s 757 mmHg 37%
    13:00 +24°C° 0 mm 0 m/s 757 mmHg 29%
    14:00 +24°C° 0 mm 0 m/s 756 mmHg 29%
    15:00 +24°C° 0 mm 0 m/s 755 mmHg 28%
    16:00 +23°C° 0 mm 0 m/s 755 mmHg 28%
    17:00 +20°C° 0 mm 0 m/s 755 mmHg 38%
    18:00 +16°C° 0 mm 0 m/s 755 mmHg 48%
    19:00 +12°C° 0 mm 0 m/s 755 mmHg 59%
    20:00 +12°C° 0 mm 0 m/s 755 mmHg 59%
    21:00 +13°C° 0 mm 1 m/s 756 mmHg 58%
    22:00 +13°C° 0 mm 1 m/s 756 mmHg 58%
    23:00 +13°C° 0 mm 1 m/s 756 mmHg 58%
    Arată mai mult